Location: Harbor View
(36.2448°N, 86.5797°W)
Time: 07:04:55
(UTC+00:00)

COSMO-SKYMED 1 - Pass Details

Date: 04 March 2021
Orbit: 621 x 623 km, 97.9° (Epoch: 13 April)

Event Time Altitude Azimuth Distance (km) Brightness Sun altitude
Rises 00:14:44 0° 4° (N) 2,909 5.9 -7.1°
Reaches altitude 10° 00:17:00 10° 358° (N) 1,998 5.2 -7.6°
Maximum altitude 00:21:07 44° 287° (WNW) 867 3.9 -8.4°
Drops below altitude 10° 00:25:13 10° 215° (SW) 1,984 5.7 -9.3°
Sets 00:27:28 0° 209° (SSW) 2,886 6.4 -9.7°
